Lid_Strength_Index
2 2 2 2 2 2 3 3 4 6 6 7 6 5 5 5 3 2 1 0 1 1 1 1 1 1 1 1 1 2 2 3 2 2 2 2 3 3
1 1 2 2 1 1 2 2 3 4 7 6 7 6 6 6 5 5 3 2 2 2 2 2 1 1 1 2 2 3 3 2 2 3 3 3 3 3
1 1 1 2 2 2 2 2 3 5 7 7 7 7 8 7 7 6 6 5 3 2 2 3 3 2 2 3 3 3 3 3 3 3 3 3 3 3
1 2 1 1 2 2 2 3 4 3 6 8 8 8 9 8 8 8 7 5 5 3 3 3 3 2 2 2 2 2 1 2 2 2 2 2 3 3
1 2 2 2 3 2 3 4 5 5 6 7 8 7 7 7 7 7 7 6 5 3 3 3 2 2 2 1 1 2 3 3 3 3 3 3 3 3
2 2 2 2 3 3 5 6 6 7 6 7 7 7 6 6 6 8 9 8 9 6 5 4 4 2 3 3 3 3 3 3 3 4 4 5 5 5
3 2 2 2 3 4 5 6 5 6 6 6 7 7 8 10 10 9 9 10 10 9 9 9 8 7 6 4 4 4 4 4 4 4 4 5 5 4
6 5 3 3 3 3 3 3 4 6 7 9 9 11 12 11 11 11 11 11 12 10 11 10 9 9 8 7 5 5 5 5 6 6 6 5 5 5
6 7 7 6 6 7 5 5 5 5 7 11 12 13 13 12 11 11 11 11 13 12 11 11 10 10 7 6 5 5 6 6 6 6 6 6 6 6
9 8 8 7 7 8 9 9 9 9 9 9 10 11 11 11 11 10 10 10 11 11 11 13 11 12 8 7 5 5 5 5 6 6 6 6 5 5
7 7 7 7 6 6 10 10 11 10 7 6 7 7 7 6 7 10 11 12 12 13 11 12 12 12 8 9 8 5 6 5 5 5 5 5 6 6
7 7 5 7 6 7 11 12 13 13 13 13 13 11 10 9 7 11 11 13 13 14 12 12 12 12 13 11 10 9 9 5 5 6 5 5 5 9
9 9 8 6 6 7 8 11 11 12 10 13 13 13 13 11 11 11 11 11 13 13 10 11 12 12 12 12 11 10 10 9 10 10 7 6 5 6
9 9 8 7 7 7 8 7 8 10 13 13 14 14 14 13 12 11 10 10 10 11 10 10 12 12 12 13 13 11 12 11 11 11 10 7 5 5
9 7 7 7 7 8 7 8 9 13 14 14 15 14 14 12 12 11 10 10 10 9 8 10 11 12 12 13 13 14 13 12 12 12 11 10 9 9
7 9 9 9 8 9 11 11 12 13 14 15 15 14 13 12 12 11 11 11 11 11 9 9 11 12 13 14 14 15 14 14 12 11 11 10 8 8
10 11 12 12 13 13 13 13 13 13 14 14 15 14 13 12 12 11 11 11 12 12 12 11 10 11 11 13 14 15 14 14 13 11 11 10 9 8
11 12 14 14 14 14 15 15 14 13 14 14 14 14 13 12 12 11 11 12 12 12 12 12 12 12 12 12 10 14 14 14 13 12 11 11 11 10
12 13 14 14 14 14 15 15 15 14 14 14 14 14 13 12 12 12 12 11 11 12 12 12 12 13 15 14 12 9 13 13 13 13 13 12 11 10
12 13 14 14 14 14 15 15 15 14 14 14 14 14 13 13 13 13 12 12 12 12 12 12 12 12 16 14 12 12 8 13 13 13 12 12 10 7
13 13 13 13 14 14 14 14 14 14 14 14 14 14 13 13 13 13 12 10 11 12 13 12 12 7 11 11 13 12 11 8 10 12 12 12 12 12
12 13 13 13 13 13 14 14 14 14 14 14 14 14 14 13 13 13 13 13 13 13 12 11 10 11 11 11 13 13 12 11 9 8 7 9 12 13
12 12 12 13 13 13 13 14 14 14 14 14 14 14 14 14 13 13 13 13 12 12 12 12 11 11 11 12 12 13 13 12 12 12 12 7 7 7